Date,TemperatureHighF,TemperatureAvgF,TemperatureLowF,DewpointHighF,DewpointAvgF,DewpointLowF,HumidityHigh,HumidityAvg,HumidityLow,PressureMaxIn,PressureMinIn,WindSpeedMaxMPH,WindSpeedAvgMPH,GustSpeedMaxMPH,PrecipitationSumIn
2013-1-1,61.0,49.6,32.4,35.6,26.8,15.0,94,48,21,29.89,29.73,15,5,32,0.01
2013-1-2,67.1,55.3,33.7,34.9,22.8,15.0,86,32,17,29.78,29.67,21,5,32,0.00
2013-1-3,69.3,49.8,32.3,30.0,24.1,18.0,88,44,14,29.82,29.71,15,4,27,0.00
2013-1-4,69.4,47.6,32.0,32.0,24.6,14.0,88,48,13,29.90,29.79,11,2,17,0.00
2013-1-5,63.4,42.3,31.8,39.0,19.2,-99.9,88,55,25,29.94,29.81,9,-93,10,0.00
2013-1-6,56.3,40.0,35.6,46.0,22.0,-99.9,97,73,62,29.84,29.67,17,-138,20,0.01
2013-1-7,65.5,33.2,33.1,44.0,-6.6,-99.9,99,47,32,29.78,29.65,4,-322,8,0.01
2013-1-8,78.4,48.4,35.2,50.0,30.3,-99.9,92,64,24,29.75,29.66,7,-63,10,0.02
2013-1-9,65.3,47.1,37.8,53.0,38.0,-99.9,97,80,53,29.75,29.65,9,-40,14,0.00
2013-1-10,58.2,45.9,39.2,48.0,28.2,-99.9,98,64,24,29.76,29.55,15,-61,21,0.00
2013-1-11,54.9,36.3,29.0,33.0,16.5,-99.9,92,61,26,29.85,29.69,9,-83,18,0.00
2013-1-12,56.5,35.3,30.3,32.0,7.8,-99.9,87,52,23,29.81,29.71,11,-146,14,0.00
2013-1-13,55.5,42.3,33.5,31.0,24.0,12.0,83,52,23,29.82,29.69,16,3,21,0.00
2013-1-14,53.7,42.1,32.5,21.0,11.2,6.0,63,31,15,30.00,29.80,15,5,28,0.00
2013-1-15,34.2,33.8,33.3,21.0,20.2,19.0,61,58,55,30.01,30.00,1,0,5,0.00
2013-1-16,72.7,65.6,49.0,31.7,27.8,23.2,50,25,18,29.90,29.80,8,4,16,0.00
2013-1-17,75.7,65.9,59.5,19.5,16.0,12.0,21,15,9,29.81,29.69,11,7,18,0.00
2013-1-18,74.7,65.3,54.9,20.3,17.4,14.4,23,16,11,29.75,29.69,11,5,21,0.00
2013-1-19,76.6,69.3,52.2,23.5,13.6,6.1,32,13,7,29.81,29.71,11,6,23,0.00
2013-1-20,76.9,63.7,51.1,24.4,5.1,-99.9,35,13,7,29.76,29.65,15,-71,16,0.00
2013-1-21,79.3,71.3,53.8,21.6,7.3,-3.4,28,9,5,29.74,29.63,12,7,23,0.00
2013-1-22,78.7,65.9,54.2,19.6,15.5,10.5,22,15,8,29.73,29.65,9,7,19,0.00
2013-1-23,73.9,62.9,52.1,51.7,38.5,24.8,90,44,21,29.76,29.63,19,2,19,0.13
2013-1-24,60.9,55.2,50.5,57.4,53.1,48.9,98,93,82,29.83,29.73,14,3,14,0.29
2013-1-25,60.6,57.4,55.3,55.6,53.2,49.1,96,86,67,29.78,29.61,17,3,17,0.18
2013-1-26,68.8,57.2,51.7,59.7,53.2,-99.9,99,89,69,29.63,29.51,8,-6,15,0.34
2013-1-27,62.7,51.6,36.1,53.2,45.3,34.1,96,81,43,29.68,29.55,9,1,12,0.06
2013-1-28,60.2,44.3,32.4,39.7,34.5,30.6,97,72,38,29.84,29.67,7,1,10,0.06
2013-1-29,59.4,41.9,32.7,40.8,35.4,31.2,96,81,42,29.86,29.77,5,1,8,0.00
2013-1-30,68.5,47.4,33.4,48.4,39.6,32.3,98,78,43,29.97,29.85,7,1,13,0.00
2013-1-31,78.2,53.3,37.3,47.4,41.2,36.0,98,71,24,29.90,29.73,7,2,15,0.00